[[{"header":{"parameterUnit":"m.s-1","parameterCategory":1,"la1":30.2991,"la2":30.254,"lo1":-89.0895,"lo2":-89.0444,"dy":0.0017,"dx":0.0017,"nx":28,"ny":28,"refTime":"2025-05-26T09:00:00:Z","depth":0,"parameterNumber":2,"parameterNumberName":"U-component_of_WINDS"},"data":[0,0,0,0,0,0,0,0,0,0,0,0,0,0,0,0,0,0,0,0,0,0,0,0,0,0,0,0,0,0,0,0,0,0,0,0,0,0,0,0,0,0,0,0,0,0,0,0,0,0,0,0,0,0,0,0,0,0,-1.5554,-1.5553,0,-1.5481,-1.5481,-1.548,-1.5457,-1.5458,-1.5458,-1.5458,-1.5375,-1.5373,-1.537,0,0,0,0,0,0,0,0,0,0,0,0,0,-1.5666,-1.5664,-1.5554,-1.5553,-1.5552,-1.5482,-1.5481,-1.5479,-1.5457,-1.5458,-1.5458,-1.5458,-1.5376,-1.5373,-1.537,0,0,0,0,0,0,0,0,0,0,0,0,0,-1.5607,-1.5663,-1.5554,-1.5533,-1.553,-1.5482,-1.548,-1.5479,-1.5457,-1.5458,-1.5458,-1.5459,-1.5377,-1.5373,-1.537,-1.5335,0,0,-1.5358,-1.5356,0,0,0,0,0,0,0,0,-1.5611,-1.5603,-1.5537,-1.5534,-1.5531,-1.5479,-1.5489,-1.543,-1.5457,-1.5484,-1.5458,-1.5459,-1.5409,-1.5402,-1.5387,-1.5331,-1.5327,-1.5357,-1.5355,-1.5353,-1.5352,0,0,0,0,0,0,0,-1.5615,-1.5606,-1.5525,-1.5536,-1.5532,-1.5524,-1.5517,-1.5478,-1.5444,-1.5482,-1.548,-1.5473,-1.5407,-1.5391,-1.5385,-1.5326,-1.5358,-1.5354,-1.5352,-1.535,-1.5237,-1.5236,0,0,0,0,0,0,-1.5624,-1.561,-1.5527,-1.5523,-1.5573,-1.5522,-1.5513,-1.5495,-1.5445,-1.5438,-1.5472,-1.5472,-1.5397,-1.539,-1.5382,-1.5338,-1.5354,-1.535,-1.5348,-1.5237,-1.5237,-1.5236,0,0,0,0,0,0,-1.5626,-1.5616,-1.553,-1.5566,-1.5554,-1.5519,-1.5499,-1.5493,-1.5477,-1.5437,-1.543,-1.5462,-1.5397,-1.5387,-1.5347,-1.5335,-1.5348,-1.5345,-1.5238,-1.5237,-1.5236,-1.525,0,0,0,0,0,0,-1.5629,-1.5618,-1.5606,-1.5566,-1.5553,-1.5499,-1.5498,-1.5491,-1.5472,-1.547,-1.5426,-1.5419,-1.5397,-1.5353,-1.5343,-1.533,-1.5342,-1.5239,-1.5238,-1.5236,-1.525,-1.5249,-1.5248,0,0,0,0,0,-1.5633,-1.5611,-1.5605,-1.5595,-1.5538,-1.5498,-1.5491,-1.5468,-1.5471,-1.5457,-1.5432,-1.542,-1.5338,-1.5349,-1.5338,-1.5323,-1.524,-1.5238,-1.5237,-1.525,-1.5249,-1.5248,0,0,0,0,0,0,-1.5647,-1.5605,-1.5599,-1.5563,-1.5535,-1.5495,-1.5477,-1.5468,-1.5436,-1.5436,-1.5407,-1.5397,-1.5359,-1.5336,-1.535,-1.5286,-1.5288,-1.5284,-1.5302,-1.5301,-1.53,-1.5306,-1.5339,0,0,0,0,0,-1.5647,-1.5621,-1.5584,-1.5556,-1.5542,-1.5513,-1.5495,-1.548,-1.5449,-1.5436,-1.5407,-1.5375,-1.5341,-1.532,-1.5287,-1.5247,-1.5236,-1.5231,-1.523,-1.5229,-1.5226,-1.5203,-1.52,-1.523,-1.523,-1.5231,0,0,-1.5644,-1.5618,-1.5603,-1.5558,-1.5535,-1.5506,-1.5502,-1.5473,-1.5451,-1.543,-1.5392,-1.5369,-1.5331,-1.5291,-1.5271,-1.5271,-1.5215,-1.5227,-1.5227,-1.5224,-1.5201,-1.5198,-1.5195,-1.5229,-1.523,-1.523,0,0,-1.5625,-1.5603,-1.5577,-1.5554,-1.552,-1.55,-1.5494,-1.5456,-1.5441,-1.5402,-1.5386,-1.5358,-1.5302,-1.5276,-1.5255,-1.5226,-1.5214,-1.5216,-1.5211,-1.5188,-1.5186,-1.5184,-1.5173,-1.517,-1.5213,-1.5213,-1.5213,0,-1.5625,-1.5585,-1.5564,-1.5536,-1.5516,-1.5499,-1.5472,-1.5449,-1.5405,-1.5391,-1.5392,-1.5321,-1.5294,-1.5247,-1.5241,-1.5224,-1.5215,-1.5221,-1.5189,-1.5186,-1.5183,-1.5173,-1.5169,-1.5213,-1.5213,-1.5213,-1.5213,0,-1.5587,-1.5559,-1.5541,-1.5502,-1.548,-1.5452,-1.5425,-1.5405,-1.5393,-1.5372,-1.5332,-1.5299,-1.526,-1.5247,-1.5233,-1.5198,-1.5199,-1.5195,-1.5196,-1.5181,-1.5171,-1.5167,-1.5214,-1.5214,-1.5214,-1.5214,0,0,-1.5574,-1.5525,-1.5519,-1.55,-1.5461,-1.5438,-1.5408,-1.5373,-1.5355,-1.5325,-1.5298,-1.5252,-1.5248,-1.5224,-1.5207,-1.5187,-1.5166,-1.5185,-1.5183,-1.5182,-1.5125,-1.5128,-1.5124,-1.5159,-1.5158,-1.5157,-1.5128,0,-1.555,-1.55,-1.548,-1.5438,-1.5411,-1.5395,-1.5369,-1.534,-1.5321,-1.5293,-1.5269,-1.5237,-1.5234,-1.522,-1.52,-1.5173,-1.5154,-1.5175,-1.5131,-1.513,-1.5142,-1.5119,-1.5122,-1.5097,-1.5124,-1.5123,-1.5123,0,-1.5515,-1.5488,-1.5443,-1.5408,-1.5396,-1.5373,-1.5339,-1.5313,-1.528,-1.5267,-1.5241,-1.5226,-1.5192,-1.5196,-1.5147,-1.5162,-1.5143,-1.5127,-1.5125,-1.512,-1.5125,-1.5112,-1.5088,-1.5084,-1.5116,-1.5116,-1.5117,0,-1.551,-1.5462,-1.5429,-1.5414,-1.5371,-1.5356,-1.5337,-1.5305,-1.5285,-1.5253,-1.524,-1.5204,-1.5184,-1.5156,-1.513,-1.5135,-1.5084,-1.5086,-1.507,-1.5071,-1.5059,-1.506,-1.5031,-1.5048,-1.5048,-1.5048,-1.5048,0,-1.5486,-1.5459,-1.5426,-1.5406,-1.5375,-1.5352,-1.5322,-1.5301,-1.5273,-1.5247,-1.5229,-1.5205,-1.5173,-1.5143,-1.5123,-1.5086,-1.5077,-1.5063,-1.5058,-1.5065,-1.5066,-1.5051,-1.5052,-1.5047,-1.5047,-1.5048,-1.5048,0,-1.5475,-1.5452,-1.5415,-1.5379,-1.5369,-1.5348,-1.5315,-1.5294,-1.5274,-1.5241,-1.5232,-1.5198,-1.5163,-1.5135,-1.5088,-1.5074,-1.5035,-1.5029,-1.5047,-1.5044,-1.503,-1.5032,-1.499,-1.4983,-1.5005,-1.5005,-1.5004,0,-1.5461,-1.544,-1.5402,-1.5385,-1.5367,-1.5338,-1.5318,-1.5294,-1.5273,-1.5235,-1.5217,-1.5181,-1.5151,-1.5095,-1.5065,-1.5029,-1.5021,-1.5009,-1.5016,-1.5023,-1.5021,-1.5022,-1.502,-1.5008,-1.5008,-1.5008,-1.5008,0,-1.5437,-1.5427,-1.54,-1.5369,-1.5346,-1.5319,-1.5292,-1.5278,-1.5249,-1.5226,-1.5191,-1.5168,-1.5121,-1.5085,-1.5046,-1.5023,-1.501,-1.5007,-1.5001,-1.5007,-1.5019,-1.5012,-1.5044,-1.5007,-1.5008,-1.5008,-1.5008,-1.5008,-1.5424,-1.5405,-1.5376,-1.5345,-1.5323,-1.5298,-1.5277,-1.5254,-1.5226,-1.5188,-1.5174,-1.5138,-1.5104,-1.5051,-1.5029,-1.4998,-1.4997,-1.4989,-1.4987,-1.4985,-1.4986,-1.5024,-1.4991,-1.4991,-1.4991,-1.4991,-1.4991,0,-1.54,-1.538,-1.5353,-1.5317,-1.5293,-1.5285,-1.5255,-1.5235,-1.5204,-1.5175,-1.5146,-1.5106,-1.5071,-1.5039,-1.5001,-1.4983,-1.4976,-1.4974,-1.4975,-1.497,-1.4989,-1.4998,-1.4981,-1.4981,-1.4981,-1.4981,-1.4981,-1.4981,-1.5385,-1.5352,-1.5338,-1.5294,-1.5274,-1.524,-1.5223,-1.5199,-1.5176,-1.5133,-1.5105,-1.5085,-1.5054,-1.5015,-1.4981,-1.4973,-1.4959,-1.4959,-1.4948,-1.4967,-1.4968,-1.497,-1.4978,-1.4956,-1.4956,-1.4931,-1.4931,-1.4931]},{"header":{"parameterUnit":"m.s-1","parameterCategory":1,"la1":30.2991,"la2":30.254,"lo1":-89.0895,"lo2":-89.0444,"dy":0.0017,"dx":0.0017,"nx":28,"ny":28,"refTime":"2025-05-26T09:00:00:Z","depth":0,"parameterNumber":3,"parameterNumberName":"V-component_of_WINDS"},"data":[0,0,0,0,0,0,0,0,0,0,0,0,0,0,0,0,0,0,0,0,0,0,0,0,0,0,0,0,0,0,0,0,0,0,0,0,0,0,0,0,0,0,0,0,0,0,0,0,0,0,0,0,0,0,0,0,0,0,0.9578,0.9579,0,0.9665,0.9666,0.9667,0.9648,0.9646,0.9644,0.9643,0.973,0.9733,0.9737,0,0,0,0,0,0,0,0,0,0,0,0,0,0.9392,0.9396,0.9578,0.9579,0.958,0.9665,0.9666,0.9667,0.9648,0.9646,0.9644,0.9642,0.9728,0.9733,0.9737,0,0,0,0,0,0,0,0,0,0,0,0,0,0.9476,0.9397,0.9578,0.9581,0.9582,0.9665,0.9666,0.9668,0.9648,0.9646,0.9643,0.9641,0.9727,0.9732,0.9738,0.9823,0,0,0.9756,0.9758,0,0,0,0,0,0,0,0,0.9471,0.9482,0.9579,0.9581,0.9582,0.9643,0.9633,0.972,0.9649,0.9623,0.9643,0.964,0.9703,0.971,0.9732,0.9827,0.9831,0.9756,0.976,0.9762,0.9764,0,0,0,0,0,0,0,0.9465,0.9479,0.9612,0.958,0.9582,0.9577,0.9586,0.9649,0.9675,0.9625,0.9624,0.9635,0.9703,0.9726,0.9734,0.9832,0.9756,0.9761,0.9765,0.9767,1.0005,1.0007,0,0,0,0,0,0,0.9458,0.9474,0.9609,0.9615,0.9519,0.9582,0.9592,0.9626,0.9675,0.968,0.9637,0.9633,0.9718,0.9727,0.9737,0.9843,0.9762,0.9768,0.9771,1.0002,1.0005,1.0008,0,0,0,0,0,0,0.9455,0.9471,0.9606,0.9544,0.9561,0.9588,0.9626,0.9629,0.9652,0.9683,0.9688,0.9656,0.9716,0.9729,0.9803,0.9846,0.977,0.9775,0.9998,1.0003,1.0007,1.0054,0,0,0,0,0,0,0.9449,0.9469,0.9502,0.9545,0.9564,0.9671,0.9628,0.9632,0.9663,0.9659,0.9703,0.9708,0.9715,0.9794,0.9808,0.9852,0.978,0.9995,1.0,1.0006,1.0049,1.0059,1.0068,0,0,0,0,0,0.9443,0.9511,0.9504,0.9521,0.9606,0.9674,0.9685,0.9693,0.9666,0.97,0.972,0.9706,0.9838,0.9802,0.9818,0.9864,0.9992,0.9999,1.0005,1.0045,1.0057,1.0068,0,0,0,0,0,0,0.9471,0.9516,0.951,0.9593,0.963,0.967,0.9713,0.9705,0.975,0.9744,0.9751,0.9761,0.9838,0.9857,0.9817,0.995,0.9911,0.9921,0.9936,0.9948,0.9958,0.9954,0.9785,0,0,0,0,0,0.9487,0.9539,0.9575,0.9645,0.9664,0.9685,0.9715,0.9718,0.9756,0.9771,0.9796,0.9833,0.9883,0.9916,0.9963,1.005,1.0061,1.009,1.0099,1.0107,1.0117,1.0169,1.0183,1.003,1.003,1.0029,0,0,0.952,0.9552,0.9584,0.9652,0.9681,0.9735,0.9698,0.9756,0.9796,0.9779,0.9853,0.9872,0.9914,0.9996,1.0033,1.0015,1.0162,1.0115,1.0122,1.0127,1.0177,1.0191,1.0204,1.0034,1.0033,1.0032,0,0,0.961,0.9638,0.9702,0.9732,0.9776,0.979,0.9805,0.9847,0.986,0.9934,0.9923,0.997,1.0055,1.0087,1.0114,1.0217,1.0207,1.0231,1.0284,1.0334,1.0347,1.0357,1.0399,1.0413,1.024,1.024,1.024,0,0.9647,0.9728,0.9735,0.9795,0.9827,0.9814,0.988,0.9908,0.9965,0.9987,0.9965,1.0074,1.01,1.0192,1.0218,1.0238,1.0258,1.0229,1.0344,1.0355,1.0366,1.0405,1.042,1.0243,1.0243,1.0242,1.0242,0,0.9773,0.9829,0.9875,0.9934,0.997,1.0032,1.0048,1.0083,1.0083,1.0099,1.0176,1.0207,1.0263,1.0283,1.0282,1.0376,1.0363,1.0342,1.0304,1.0383,1.0421,1.0435,1.0247,1.0246,1.0245,1.0245,0,0,0.9885,0.9947,0.9965,0.9993,1.0041,1.0085,1.0146,1.0202,1.0234,1.0273,1.0328,1.04,1.0382,1.0413,1.0415,1.0458,1.0544,1.0433,1.0434,1.0457,1.0653,1.0672,1.069,1.0536,1.0539,1.0541,1.0651,0,0.9983,1.0095,1.0103,1.0204,1.0258,1.0247,1.0301,1.0337,1.0354,1.0402,1.0419,1.0473,1.0442,1.0462,1.0503,1.0525,1.0584,1.0516,1.0589,1.0591,1.0584,1.0708,1.0728,1.0831,1.0666,1.0668,1.067,0,1.0113,1.016,1.0267,1.0311,1.0334,1.0383,1.0436,1.0481,1.0522,1.0531,1.0566,1.0563,1.0627,1.0583,1.0674,1.0628,1.0657,1.0672,1.0676,1.0687,1.0639,1.0727,1.0863,1.0881,1.0692,1.069,1.0688,0,1.0191,1.0279,1.0356,1.0379,1.0431,1.0467,1.0489,1.0528,1.0562,1.0607,1.0629,1.0681,1.071,1.075,1.0762,1.0728,1.0853,1.0809,1.0865,1.0865,1.0896,1.0895,1.1044,1.0907,1.0906,1.0906,1.0906,0,1.0303,1.037,1.0392,1.044,1.0515,1.0523,1.0597,1.0617,1.0652,1.0704,1.0695,1.0743,1.0753,1.0804,1.0812,1.0889,1.09,1.0911,1.0914,1.0915,1.0915,1.0938,1.0933,1.091,1.0909,1.0908,1.0908,0,1.0404,1.0421,1.0505,1.0548,1.056,1.0614,1.0651,1.0697,1.0711,1.0778,1.0793,1.0817,1.0877,1.0891,1.0961,1.0967,1.1059,1.1051,1.1046,1.1047,1.1104,1.1101,1.1278,1.1303,1.1145,1.1146,1.1147,0,1.0477,1.0529,1.0578,1.0613,1.0639,1.0694,1.0729,1.0738,1.0775,1.0827,1.0867,1.0926,1.0974,1.107,1.1094,1.1148,1.1145,1.1203,1.1153,1.1154,1.1152,1.1151,1.1158,1.1214,1.1216,1.1217,1.1218,0,1.0606,1.0613,1.0664,1.072,1.0763,1.0807,1.0848,1.0877,1.0892,1.0934,1.0996,1.1033,1.1106,1.1166,1.1221,1.1244,1.1236,1.1233,1.125,1.1255,1.1252,1.126,1.1078,1.123,1.1229,1.1228,1.1228,1.1227,1.0699,1.0746,1.079,1.0848,1.0881,1.092,1.0967,1.0989,1.1041,1.1103,1.1104,1.1172,1.1213,1.1286,1.1313,1.1367,1.1349,1.1372,1.1379,1.1386,1.1394,1.1239,1.1376,1.1375,1.1375,1.1375,1.1375,0,1.0832,1.086,1.0913,1.0974,1.102,1.1007,1.1053,1.1093,1.1154,1.1193,1.1241,1.1313,1.1371,1.14,1.1458,1.1496,1.1493,1.1511,1.1511,1.1518,1.1403,1.1386,1.1512,1.1512,1.1512,1.1512,1.1512,1.1512,1.0908,1.0989,1.1,1.1097,1.1123,1.1192,1.122,1.1257,1.1289,1.1371,1.142,1.1438,1.1474,1.1534,1.1588,1.1594,1.1618,1.1639,1.1645,1.1539,1.1525,1.1512,1.1495,1.1643,1.1643,1.1755,1.1756,1.1757]}]]